When you browse on this site, cookies collect data to enhance your experience and personalize the content and advertising you see.
Visit our Privacy Policy to learn more. By continuing to use the site, you agree to this use of cookies and data.
  • En España
  • Lista de países
  • Para 7 días
  • Temperatura del agua
  • El tiempo en el mapa
  • Informadores
  • user-avatar
    Iniciar sesión

    Tiempo cada hora Lankaran

    Hoy, 7 Junio, Domingo

    Tiempo Temperatura Precipitaciones Viento Presión Humedad
    00:00 +10°C° 0 mm 1 mps 636 mmHg 76%
    01:00 +10°C° 0 mm 1 mps 635 mmHg 76%
    02:00 +10°C° 0 mm 1 mps 635 mmHg 76%
    03:00 +10°C° 0 mm 1 mps 635 mmHg 76%
    04:00 +11°C° 0 mm 1 mps 635 mmHg 73%
    05:00 +11°C° 0 mm 0 mps 636 mmHg 69%
    06:00 +13°C° 0 mm 0 mps 637 mmHg 66%
    07:00 +15°C° 0 mm 1 mps 637 mmHg 63%
    08:00 +16°C° 0 mm 1 mps 637 mmHg 59%
    09:00 +18°C° 0 mm 2 mps 638 mmHg 55%
    10:00 +19°C° 0 mm 3 mps 638 mmHg 52%
    11:00 +20°C° 0 mm 3 mps 638 mmHg 48%
    12:00 +21°C° 0 mm 3 mps 638 mmHg 44%
    13:00 +20°C° 0 mm 4 mps 638 mmHg 43%
    14:00 +20°C° 0 mm 4 mps 637 mmHg 42%
    15:00 +20°C° 0 mm 4 mps 637 mmHg 42%
    16:00 +19°C° 0 mm 3 mps 636 mmHg 48%
    17:00 +18°C° 0 mm 3 mps 636 mmHg 54%
    18:00 +16°C° 0 mm 3 mps 635 mmHg 60%
    19:00 +15°C° 0 mm 2 mps 635 mmHg 59%
    20:00 +13°C° 0 mm 2 mps 634 mmHg 59%
    21:00 +11°C° 0 mm 1 mps 634 mmHg 59%
    22:00 +11°C° 0 mm 1 mps 634 mmHg 53%
    23:00 +11°C° 0 mm 1 mps 633 mmHg 47%

    Mañana, 8 Junio, Lunes

    Tiempo Temperatura Precipitaciones Viento Presión Humedad
    00:00 +11°C° 0 mm 1 mps 633 mmHg 41%
    01:00 +11°C° 0 mm 1 mps 633 mmHg 40%
    02:00 +10°C° 0 mm 1 mps 633 mmHg 38%
    03:00 +10°C° 0 mm 1 mps 632 mmHg 37%
    04:00 +12°C° 0 mm 1 mps 633 mmHg 38%
    05:00 +13°C° 0 mm 1 mps 634 mmHg 39%
    06:00 +14°C° 0 mm 0 mps 634 mmHg 41%
    07:00 +16°C° 0 mm 1 mps 635 mmHg 37%
    08:00 +18°C° 0 mm 2 mps 635 mmHg 34%
    09:00 +19°C° 0 mm 2 mps 636 mmHg 31%
    10:00 +20°C° 0 mm 3 mps 636 mmHg 32%
    11:00 +20°C° 0 mm 3 mps 636 mmHg 34%
    12:00 +21°C° 0 mm 4 mps 636 mmHg 36%
    13:00 +21°C° 0 mm 4 mps 636 mmHg 37%
    14:00 +21°C° 0 mm 4 mps 635 mmHg 39%
    15:00 +20°C° 0 mm 4 mps 635 mmHg 41%
    16:00 +19°C° 0 mm 3 mps 634 mmHg 48%
    17:00 +18°C° 0 mm 3 mps 634 mmHg 55%
    18:00 +17°C° 0 mm 2 mps 634 mmHg 62%
    19:00 +15°C° 0 mm 2 mps 633 mmHg 62%
    20:00 +13°C° 0 mm 1 mps 633 mmHg 62%
    21:00 +12°C° 0 mm 1 mps 633 mmHg 63%
    22:00 +12°C° 0 mm 1 mps 632 mmHg 59%
    23:00 +12°C° 0 mm 1 mps 632 mmHg 56%

    Pasado mañana, 9 Junio, Martes

    Tiempo Temperatura Precipitaciones Viento Presión Humedad
    00:00 +11°C° 0 mm 1 mps 632 mmHg 53%
    01:00 +11°C° 0 mm 1 mps 632 mmHg 53%
    02:00 +11°C° 0 mm 1 mps 632 mmHg 53%
    03:00 +11°C° 0 mm 1 mps 632 mmHg 52%
    04:00 +13°C° 0 mm 1 mps 633 mmHg 52%
    05:00 +14°C° 0 mm 1 mps 634 mmHg 52%
    06:00 +14°C° 0 mm 0 mps 634 mmHg 51%
    07:00 +18°C° 0 mm 1 mps 635 mmHg 50%
    08:00 +18°C° 0 mm 2 mps 635 mmHg 50%
    09:00 +19°C° 0 mm 2 mps 636 mmHg 49%
    10:00 +20°C° 0.1 mm 3 mps 636 mmHg 48%
    11:00 +21°C° 0.1 mm 3 mps 636 mmHg 47%
    12:00 +22°C° 0.1 mm 4 mps 636 mmHg 46%
    13:00 +22°C° 0.1 mm 4 mps 636 mmHg 47%
    14:00 +21°C° 0.1 mm 3 mps 635 mmHg 47%
    15:00 +21°C° 0.1 mm 3 mps 635 mmHg 48%
    16:00 +20°C° 0.4 mm 3 mps 635 mmHg 55%
    17:00 +19°C° 0.4 mm 2 mps 635 mmHg 61%
    18:00 +18°C° 0.4 mm 1 mps 635 mmHg 67%
    19:00 +18°C° 0.1 mm 1 mps 634 mmHg 68%
    20:00 +16°C° 0.1 mm 1 mps 634 mmHg 69%
    21:00 +16°C° 0.1 mm 2 mps 634 mmHg 69%
    22:00 +15°C° 0 mm 1 mps 634 mmHg 69%
    23:00 +15°C° 0 mm 1 mps 634 mmHg 69%

    10 Junio, Miércoles

    Tiempo Temperatura Precipitaciones Viento Presión Humedad
    00:00 +15°C° 0 mm 1 mps 633 mmHg 68%
    01:00 +14°C° 0 mm 1 mps 633 mmHg 70%
    02:00 +14°C° 0 mm 1 mps 633 mmHg 71%
    03:00 +13°C° 0 mm 1 mps 633 mmHg 73%
    04:00 +15°C° 0 mm 1 mps 633 mmHg 69%
    05:00 +16°C° 0 mm 1 mps 634 mmHg 65%
    06:00 +16°C° 0 mm 0 mps 635 mmHg 61%
    07:00 +20°C° 0 mm 1 mps 635 mmHg 55%
    08:00 +20°C° 0 mm 2 mps 635 mmHg 50%
    09:00 +21°C° 0 mm 2 mps 636 mmHg 44%
    10:00 +22°C° 0 mm 3 mps 636 mmHg 43%
    11:00 +24°C° 0 mm 3 mps 636 mmHg 41%
    12:00 +25°C° 0 mm 3 mps 636 mmHg 39%
    13:00 +24°C° 0.1 mm 3 mps 636 mmHg 40%
    14:00 +24°C° 0.1 mm 3 mps 635 mmHg 40%
    15:00 +24°C° 0.1 mm 3 mps 635 mmHg 41%
    16:00 +23°C° 0.2 mm 2 mps 635 mmHg 46%
    17:00 +20°C° 0.2 mm 2 mps 635 mmHg 51%
    18:00 +20°C° 0.2 mm 1 mps 634 mmHg 56%
    19:00 +19°C° 0.1 mm 1 mps 634 mmHg 55%
    20:00 +19°C° 0.1 mm 1 mps 634 mmHg 54%
    21:00 +18°C° 0.1 mm 1 mps 634 mmHg 53%
    22:00 +18°C° 0 mm 1 mps 634 mmHg 55%
    23:00 +16°C° 0 mm 1 mps 633 mmHg 57%

    11 Junio, Jueves

    Tiempo Temperatura Precipitaciones Viento Presión Humedad
    00:00 +15°C° 0 mm 1 mps 632 mmHg 60%
    01:00 +15°C° 0 mm 1 mps 632 mmHg 60%
    02:00 +15°C° 0 mm 1 mps 632 mmHg 59%
    03:00 +15°C° 0 mm 1 mps 632 mmHg 59%
    04:00 +16°C° 0.1 mm 1 mps 632 mmHg 59%
    05:00 +18°C° 0.1 mm 1 mps 633 mmHg 58%
    06:00 +17°C° 0.1 mm 0 mps 633 mmHg 58%
    07:00 +21°C° 0.1 mm 1 mps 633 mmHg 53%
    08:00 +22°C° 0.1 mm 1 mps 634 mmHg 48%
    09:00 +23°C° 0.1 mm 2 mps 634 mmHg 43%
    10:00 +24°C° 0.1 mm 2 mps 634 mmHg 41%
    11:00 +25°C° 0.1 mm 3 mps 634 mmHg 39%
    12:00 +25°C° 0.1 mm 3 mps 634 mmHg 36%
    13:00 +25°C° 0.1 mm 3 mps 634 mmHg 37%
    14:00 +25°C° 0.1 mm 3 mps 633 mmHg 38%
    15:00 +25°C° 0.1 mm 3 mps 633 mmHg 39%
    16:00 +21°C° 0.6 mm 3 mps 632 mmHg 48%
    17:00 +19°C° 0.6 mm 3 mps 632 mmHg 57%
    18:00 +17°C° 0.6 mm 3 mps 631 mmHg 66%
    19:00 +17°C° 0 mm 3 mps 631 mmHg 63%
    20:00 +16°C° 0 mm 2 mps 630 mmHg 60%
    21:00 +16°C° 0 mm 2 mps 630 mmHg 57%
    22:00 +16°C° 0 mm 2 mps 630 mmHg 56%
    23:00 +16°C° 0 mm 1 mps 630 mmHg 54%

    12 Junio, Viernes

    Tiempo Temperatura Precipitaciones Viento Presión Humedad
    00:00 +15°C° 0 mm 1 mps 629 mmHg 53%
    01:00 +15°C° 0 mm 1 mps 629 mmHg 54%
    02:00 +15°C° 0 mm 1 mps 629 mmHg 56%
    03:00 +15°C° 0 mm 1 mps 629 mmHg 57%
    04:00 +16°C° 0 mm 1 mps 629 mmHg 56%
    05:00 +18°C° 0 mm 1 mps 630 mmHg 55%
    06:00 +18°C° 0 mm 0 mps 630 mmHg 53%
    07:00 +21°C° 0 mm 1 mps 631 mmHg 49%
    08:00 +21°C° 0 mm 2 mps 631 mmHg 45%
    09:00 +24°C° 0 mm 2 mps 632 mmHg 41%
    10:00 +25°C° 0 mm 2 mps 631 mmHg 40%
    11:00 +25°C° 0 mm 3 mps 631 mmHg 38%
    12:00 +26°C° 0 mm 3 mps 631 mmHg 37%
    13:00 +26°C° 0.1 mm 3 mps 631 mmHg 37%
    14:00 +26°C° 0.1 mm 3 mps 631 mmHg 38%
    15:00 +26°C° 0.1 mm 3 mps 630 mmHg 39%
    16:00 +24°C° 0.1 mm 3 mps 630 mmHg 46%
    17:00 +21°C° 0.1 mm 2 mps 629 mmHg 54%
    18:00 +20°C° 0.1 mm 2 mps 629 mmHg 61%
    19:00 +19°C° 0.2 mm 2 mps 629 mmHg 62%
    20:00 +18°C° 0.2 mm 3 mps 629 mmHg 64%
    21:00 +17°C° 0.2 mm 3 mps 629 mmHg 65%
    22:00 +17°C° 0.1 mm 3 mps 628 mmHg 64%
    23:00 +17°C° 0.1 mm 2 mps 628 mmHg 63%
    Mostrar más